TimePST,TemperatureF,Dew PointF,Humidity,Sea Level PressureIn,VisibilityMPH,Wind Direction,Wind SpeedMPH,Gust SpeedMPH,PrecipitationIn,Events,Conditions,WindDirDegrees,DateUTC
12:08 AM,44.6,44.6,100,30.06,1.5,Variable,5.8,17.3,0.01,Rain,Light Rain,0,2013-01-04 08:08:00
12:38 AM,44.6,44.6,100,30.08,2.5,South,12.7,21.9,0.01,,Overcast,170,2013-01-04 08:38:00
12:53 AM,45.0,44.1,97,30.09,3.0,South,6.9,24.2,0.02,Rain,Light Rain,190,2013-01-04 08:53:00
1:53 AM,46.0,44.1,93,30.14,4.0,SSE,8.1,-,0.00,,Overcast,150,2013-01-04 09:53:00
2:31 AM,46.4,44.6,93,30.15,2.0,Variable,3.5,-,0.00,Rain,Light Rain,0,2013-01-04 10:31:00
2:42 AM,46.4,44.6,93,30.15,1.2,Calm,Calm,-,0.01,Rain,Light Rain,0,2013-01-04 10:42:00
2:53 AM,46.0,45.0,96,30.16,1.0,SSW,4.6,-,0.03,Rain,Light Rain,210,2013-01-04 10:53:00
3:24 AM,46.4,44.6,93,30.16,1.5,Calm,Calm,-,N/A,Rain,Light Rain,0,2013-01-04 11:24:00
3:35 AM,46.4,44.6,93,30.16,1.0,Variable,3.5,-,0.04,Rain,Light Rain,0,2013-01-04 11:35:00
3:50 AM,46.4,44.6,93,30.16,0.8,SSE,3.5,-,0.07,Rain,Light Rain,160,2013-01-04 11:50:00
3:53 AM,46.0,45.0,96,30.16,0.8,SE,4.6,-,0.07,Rain,Light Rain,140,2013-01-04 11:53:00
4:17 AM,44.6,44.6,100,30.17,1.0,SSE,3.5,-,0.04,Rain,Light Rain,160,2013-01-04 12:17:00
4:24 AM,44.6,44.6,100,30.17,0.8,SE,3.5,-,0.04,Rain,Light Rain,140,2013-01-04 12:24:00
4:53 AM,45.0,45.0,100,30.17,0.8,SSE,5.8,-,0.07,Rain,Light Rain,150,2013-01-04 12:53:00
5:40 AM,44.6,44.6,100,30.19,1.2,Calm,Calm,-,0.02,Rain,Light Rain,0,2013-01-04 13:40:00
5:53 AM,45.0,45.0,100,30.19,1.0,SSE,3.5,-,0.03,Rain,Light Rain,150,2013-01-04 13:53:00
6:12 AM,44.6,44.6,100,30.19,1.5,SSE,3.5,-,0.00,,Overcast,150,2013-01-04 14:12:00
6:21 AM,44.6,44.6,100,30.19,1.0,SSE,4.6,-,0.01,Rain,Light Rain,150,2013-01-04 14:21:00
6:34 AM,44.6,44.6,100,30.19,1.5,SSE,5.8,-,0.01,Rain,Light Rain,160,2013-01-04 14:34:00
6:41 AM,44.6,44.6,100,30.19,1.2,Calm,Calm,-,0.01,Rain,Light Rain,0,2013-01-04 14:41:00
6:53 AM,45.0,45.0,100,30.20,0.8,Variable,3.5,-,0.01,,Mist,0,2013-01-04 14:53:00
7:04 AM,44.6,44.6,100,30.20,1.0,Variable,3.5,-,0.01,Rain,Light Rain,0,2013-01-04 15:04:00
7:53 AM,45.0,45.0,100,30.22,1.0,South,4.6,-,0.02,,Mist,190,2013-01-04 15:53:00
8:10 AM,44.6,44.6,100,30.22,1.8,Variable,3.5,-,0.01,,Overcast,0,2013-01-04 16:10:00
8:21 AM,44.6,44.6,100,30.23,1.0,South,4.6,-,0.01,,Mist,190,2013-01-04 16:21:00
8:29 AM,44.6,44.6,100,30.23,0.5,South,5.8,-,0.01,Fog,Fog,180,2013-01-04 16:29:00
8:53 AM,45.0,45.0,100,30.25,0.8,South,5.8,-,0.01,,Mist,190,2013-01-04 16:53:00
9:53 AM,46.0,45.0,96,30.27,0.2,Calm,Calm,-,0.02,Fog-Rain,Light Rain,0,2013-01-04 17:53:00
10:04 AM,46.4,46.4,100,30.27,0.5,South,3.5,-,0.01,Fog,Fog,180,2013-01-04 18:04:00
10:18 AM,46.4,46.4,100,30.27,0.5,Calm,Calm,-,0.01,Fog,Fog,0,2013-01-04 18:18:00
10:25 AM,46.4,46.4,100,30.27,1.5,South,4.6,-,0.01,,Overcast,180,2013-01-04 18:25:00
10:31 AM,46.4,46.4,100,30.27,1.0,SSW,5.8,-,N/A,,Mist,210,2013-01-04 18:31:00
10:41 AM,46.4,44.6,93,30.28,0.8,SW,4.6,-,0.01,,Mist,220,2013-01-04 18:41:00
10:53 AM,46.0,45.0,96,30.28,0.8,South,3.5,-,0.01,,Mist,190,2013-01-04 18:53:00
10:59 AM,46.4,44.6,93,30.28,1.5,Variable,3.5,-,N/A,,Overcast,0,2013-01-04 18:59:00
11:16 AM,46.4,46.4,100,30.27,0.8,Calm,Calm,-,N/A,,Mist,0,2013-01-04 19:16:00
11:32 AM,46.4,44.6,93,30.27,1.0,South,3.5,-,N/A,,Mist,180,2013-01-04 19:32:00
11:39 AM,46.4,44.6,93,30.27,0.8,Calm,Calm,-,0.00,Rain,Light Rain,0,2013-01-04 19:39:00
11:44 AM,46.4,44.6,93,30.26,1.2,South,3.5,-,0.00,,Overcast,190,2013-01-04 19:44:00
11:53 AM,46.0,45.0,96,30.27,1.8,South,4.6,-,0.00,,Overcast,180,2013-01-04 19:53:00
11:57 AM,46.4,44.6,93,30.26,1.2,SSE,5.8,-,0.01,,Overcast,160,2013-01-04 19:57:00
12:03 PM,46.4,44.6,93,30.26,0.8,South,4.6,-,0.01,,Overcast,190,2013-01-04 20:03:00
12:12 PM,46.4,46.4,100,30.25,1.0,SSE,3.5,-,0.01,Rain,Light Rain,160,2013-01-04 20:12:00
12:17 PM,46.4,46.4,100,30.25,2.0,SSE,4.6,-,0.01,,Overcast,160,2013-01-04 20:17:00
12:26 PM,46.4,46.4,100,30.25,4.0,South,3.5,-,0.01,,Mostly Cloudy,170,2013-01-04 20:26:00
12:51 PM,48.2,46.4,93,30.24,4.0,South,6.9,-,0.01,,Mostly Cloudy,180,2013-01-04 20:51:00
12:53 PM,48.0,46.0,93,30.25,4.0,South,5.8,-,0.01,,Mostly Cloudy,170,2013-01-04 20:53:00
1:02 PM,48.2,44.6,87,30.24,4.0,South,4.6,-,N/A,,Mostly Cloudy,170,2013-01-04 21:02:00
1:19 PM,46.4,44.6,93,30.23,1.8,Variable,4.6,-,N/A,,Mostly Cloudy,0,2013-01-04 21:19:00
1:25 PM,46.4,46.4,100,30.23,1.5,South,5.8,-,N/A,,Overcast,170,2013-01-04 21:25:00
1:34 PM,46.4,44.6,93,30.23,3.0,Calm,Calm,-,N/A,,Overcast,0,2013-01-04 21:34:00
1:53 PM,46.9,45.0,93,30.23,4.0,SSW,5.8,-,N/A,,Overcast,200,2013-01-04 21:53:00
2:07 PM,46.4,44.6,93,30.23,4.0,South,6.9,-,N/A,,Overcast,190,2013-01-04 22:07:00
2:24 PM,46.4,44.6,93,30.23,2.5,South,5.8,-,N/A,,Overcast,180,2013-01-04 22:24:00
2:35 PM,46.4,44.6,93,30.23,4.0,SSE,3.5,-,N/A,,Overcast,160,2013-01-04 22:35:00
2:53 PM,46.9,44.1,90,30.23,4.0,Calm,Calm,-,N/A,,Overcast,0,2013-01-04 22:53:00
3:36 PM,46.4,44.6,93,30.21,4.0,Calm,Calm,-,N/A,,Mostly Cloudy,0,2013-01-04 23:36:00
3:53 PM,46.0,44.1,93,30.21,4.0,Calm,Calm,-,N/A,,Overcast,0,2013-01-04 23:53:00
4:05 PM,46.4,44.6,93,30.20,3.0,Calm,Calm,-,N/A,,Overcast,0,2013-01-05 00:05:00
4:53 PM,44.1,43.0,96,30.20,4.0,Calm,Calm,-,N/A,,Partly Cloudy,0,2013-01-05 00:53:00
5:39 PM,44.6,42.8,93,30.19,5.0,ENE,6.9,-,N/A,,Overcast,60,2013-01-05 01:39:00
5:53 PM,44.1,43.0,96,30.19,5.0,NE,6.9,-,N/A,,Overcast,50,2013-01-05 01:53:00
6:10 PM,44.6,42.8,93,30.18,6.0,NE,5.8,-,N/A,,Overcast,50,2013-01-05 02:10:00
6:53 PM,43.0,42.1,97,30.17,6.0,ENE,5.8,-,N/A,,Overcast,60,2013-01-05 02:53:00
7:53 PM,43.0,42.1,97,30.16,5.0,Calm,Calm,-,N/A,,Overcast,0,2013-01-05 03:53:00
8:53 PM,42.1,41.0,96,30.14,5.0,Calm,Calm,-,N/A,,Overcast,0,2013-01-05 04:53:00
9:53 PM,42.1,41.0,96,30.13,6.0,East,3.5,-,N/A,,Overcast,90,2013-01-05 05:53:00
10:53 PM,43.0,41.0,93,30.12,6.0,East,4.6,-,N/A,,Overcast,80,2013-01-05 06:53:00
11:53 PM,43.0,41.0,93,30.12,6.0,Calm,Calm,-,N/A,,Overcast,0,2013-01-05 07:53:00